GW5117 Weather Reports


time (UTC)temp
F
wind
direction
speed
knots
gust
knots
rain 1hr
in
rain 24hr
in
rain mn
in
humidity
%
barometer
mb
20260502170459 54 334 4.3 6.1 0.00 0.00 0.00 41 1017.6
20260502163943 51 94 0.9 3.5 0.00 0.00 0.00 46 1017.9
20260502163438 51 51 2.6 3.5 0.00 0.00 0.00 43 1017.9
20260502162937 53 186 1.7 12.2 0.00 0.00 0.00 41 1018.1
20260502162433 53 45 0.9 7.0 0.00 0.00 0.00 41 1017.9
20260502161930 52 18 1.7 7.0 0.00 0.00 0.00 45 1017.9
20260502161427 54 138 0.9 3.5 0.00 0.00 0.00 41 1018.1
20260502160925 54 214 4.3 6.1 0.00 0.00 0.00 41 1018.2
20260502160423 53 92 1.7 6.1 0.00 0.00 0.00 43 1018.2
20260502151901 51 107 0.9 0.9 0.00 0.00 0.00 48 1018.3
20260502151357 52 138 0.0 0.9 0.00 0.00 0.00 53 1018.3
20260502150855 53 22 0.9 2.6 0.00 0.00 0.00 51 1018.3
20260502150351 51 152 0.0 0.9 0.00 0.00 0.00 58 1018.2
20260502130739 42 42 1.7 2.6 0.00 0.00 0.00 99 1018.7
20260502130237 41 49 0.0 0.0 0.00 0.00 0.00 99 1018.7
20260502123723 37 285 0.0 0.0 0.00 0.00 0.00 99 1018.3
20260502123219 37 284 0.0 0.0 0.00 0.00 0.00 99 1018.4
20260502122716 36 285 0.0 0.0 0.00 0.00 0.00 99 1018.4
20260502122212 35 284 0.0 0.0 0.00 0.00 0.00 99 1018.6
20260502121711 35 285 0.0 0.0 0.00 0.00 0.00 99 1018.4
20260502121208 34 285 0.0 0.0 0.00 0.00 0.00 99 1018.8
20260502120704 34 285 0.0 0.0 0.00 0.00 0.00 99 1018.6
20260502120201 34 285 0.0 0.0 0.00 0.00 0.00 99 1018.5
20260502115659 34 285 0.0 0.0 0.00 0.00 0.00 99 1018.7
20260502115155 33 285 0.0 0.0 0.00 0.00 0.00 99 1018.7
20260502114651 33 285 0.0 0.0 0.00 0.00 0.00 99 1018.6
20260502114149 33 285 0.0 0.0 0.00 0.00 0.00 99 1018.4
20260502113646 33 285 0.0 0.0 0.00 0.00 0.00 99 1018.4
20260502113144 33 285 0.0 0.0 0.00 0.00 0.00 99 1018.5
20260502112642 33 285 0.0 0.0 0.00 0.00 0.00 99 1018.3
20260502112139 32 285 0.0 0.0 0.00 0.00 0.00 99 1018.4
20260502111636 32 285 0.0 0.0 0.00 0.00 0.00 99 1018.3
20260502111133 32 285 0.0 0.0 0.00 0.00 0.00 99 1018.2
20260502110631 31 285 0.0 0.0 0.00 0.00 0.00 99 1018.5
20260502110128 31 285 0.0 0.0 0.00 0.00 0.00 99 1018.3
20260502105626 31 285 0.0 0.0 0.00 0.00 0.00 99 1018.2
20260502105123 31 285 0.0 0.0 0.00 0.00 0.00 99 1018.4
20260502104620 31 285 0.0 0.0 0.00 0.00 0.00 99 1018.3
20260502104117 31 285 0.0 0.0 0.00 0.00 0.00 99 1018.5
20260502103615 32 285 0.0 0.0 0.00 0.00 0.00 99 1018.7
20260502103113 32 285 0.0 0.0 0.00 0.00 0.00 99 1018.7
20260502102609 32 285 0.0 0.0 0.00 0.00 0.00 99 1018.6
20260502102106 32 285 0.0 0.0 0.00 0.00 0.00 99 1018.6
20260502101604 32 285 0.0 0.0 0.00 0.00 0.00 99 1018.7
20260502101102 32 285 0.0 0.0 0.00 0.00 0.00 99 1018.6
20260502100600 32 285 0.0 0.0 0.00 0.00 0.00 99 1018.5
20260502091032 32 285 0.0 0.0 0.00 0.00 0.00 99 1018.7
20260502090529 32 285 0.0 0.0 0.00 0.00 0.00 99 1018.6
20260502071424 34 285 0.0 0.0 0.00 0.00 0.00 99 1018.4
20260502070922 34 285 0.0 0.0 0.00 0.00 0.00 99 1018.4
20260502070420 34 285 0.0 0.0 0.00 0.00 0.00 99 1018.5
20260502065918 34 285 0.0 0.0 0.00 0.00 0.00 99 1018.3
20260502065416 34 285 0.0 0.0 0.00 0.00 0.00 99 1018.2
20260502064914 34 285 0.0 0.0 0.00 0.00 0.00 99 1018.4
20260502064411 34 285 0.0 0.0 0.00 0.00 0.00 99 1018.5
20260502063908 34 285 0.0 0.0 0.00 0.00 0.00 99 1018.7
20260502063406 34 285 0.0 0.0 0.00 0.00 0.00 99 1018.8
20260502062903 34 285 0.0 0.0 0.00 0.00 0.00 99 1018.8
20260502062400 34 285 0.0 0.0 0.00 0.00 0.00 99 1018.6
20260502061859 35 285 0.0 0.0 0.00 0.00 0.00 99 1018.7
20260502061357 34 285 0.0 0.0 0.00 0.00 0.00 99 1018.8
20260502060852 35 285 0.0 0.0 0.00 0.00 0.00 99 1018.8
20260502060347 35 285 0.0 0.0 0.00 0.00 0.00 99 1018.9
20260502055845 35 285 0.0 0.0 0.00 0.00 0.00 99 1018.9
20260502055343 35 285 0.0 0.0 0.00 0.00 0.00 99 1019.2
20260502054842 35 285 0.0 0.0 0.00 0.00 0.00 98 1019.0
20260502054339 35 285 0.0 0.0 0.00 0.00 0.00 98 1019.0
20260502053837 35 285 0.0 0.0 0.00 0.00 0.00 98 1019.0
20260502053334 35 285 0.0 0.0 0.00 0.00 0.00 98 1018.9
20260502052831 36 285 0.0 0.0 0.00 0.00 0.00 98 1019.0
20260502052329 36 285 0.0 0.0 0.00 0.00 0.00 98 1019.1
20260502051827 36 285 0.0 0.0 0.00 0.00 0.00 98 1019.0
20260502051326 36 285 0.0 0.9 0.00 0.00 0.00 98 1018.9
20260502050821 36 285 0.0 0.0 0.00 0.00 0.00 98 1019.0
20260502050318 36 285 0.0 0.0 0.00 0.00 0.00 98 1019.0
20260502045815 36 285 0.0 0.0 0.00 0.00 0.00 98 1019.2
20260502045312 37 285 0.0 0.0 0.00 0.00 0.00 98 1019.2
20260502044809 37 285 0.0 0.0 0.00 0.00 0.00 98 1019.2
20260502044305 37 285 0.0 0.0 0.00 0.00 0.00 98 1019.1
20260502043802 37 285 0.0 0.0 0.00 0.00 0.00 97 1019.3
20260502043300 37 285 0.0 0.0 0.00 0.00 0.00 97 1019.2
20260502042759 37 285 0.0 0.0 0.00 0.00 0.00 97 1019.3
20260502042256 37 285 0.0 0.0 0.00 0.00 0.00 97 1019.4
20260502041754 38 285 0.0 0.0 0.00 0.00 0.00 97 1019.2
20260502041251 38 285 0.0 0.0 0.00 0.00 0.00 97 1019.0
20260502040748 38 285 0.0 0.0 0.00 0.00 0.00 97 1019.1
20260502040245 38 285 0.0 0.0 0.00 0.00 0.00 96 1019.0
20260502035741 38 285 0.0 0.0 0.00 0.00 0.00 96 1019.0
20260502035238 38 285 0.0 0.0 0.00 0.00 0.00 96 1019.0
20260502034735 39 285 0.0 0.0 0.00 0.00 0.00 96 1018.9
20260502034233 39 285 0.0 0.0 0.00 0.00 0.00 95 1019.0
20260502033731 39 285 0.0 0.0 0.00 0.00 0.00 95 1019.0
20260502033229 39 285 0.0 0.0 0.00 0.00 0.00 95 1019.0
20260502032725 40 285 0.0 0.0 0.00 0.00 0.00 95 1019.0
20260502032221 40 285 0.0 0.0 0.00 0.00 0.00 94 1019.1
20260502031719 40 285 0.0 0.0 0.00 0.00 0.00 93 1019.1
20260502031217 40 285 0.0 0.0 0.00 0.00 0.00 93 1019.0
20260502030716 41 285 0.0 0.0 0.00 0.00 0.00 93 1019.1
20260502030214 41 285 0.0 0.0 0.00 0.00 0.00 92 1019.1
20260502025710 41 285 0.0 0.0 0.00 0.00 0.00 91 1019.0
20260502025208 42 285 0.0 0.0 0.00 0.00 0.00 91 1019.1
20260502024705 42 285 0.0 0.0 0.00 0.00 0.00 91 1019.0
20260502024204 43 285 0.0 0.0 0.00 0.00 0.00 90 1019.0
20260502023701 43 285 0.0 0.0 0.00 0.00 0.00 88 1018.7
20260502023158 44 286 0.0 0.0 0.00 0.00 0.00 87 1018.6
20260502022655 44 286 0.0 0.0 0.00 0.00 0.00 86 1018.5
20260502022152 45 286 0.0 0.0 0.00 0.00 0.00 84 1018.4
20260502021650 45 286 0.0 0.0 0.00 0.00 0.00 84 1018.6
20260502021147 46 286 0.0 0.0 0.00 0.00 0.00 82 1018.2
20260502020644 46 286 0.0 0.9 0.00 0.00 0.00 80 1018.4
20260502020140 47 335 0.0 0.0 0.00 0.00 0.00 79 1018.3
20260502015639 47 23 0.0 0.9 0.00 0.00 0.00 76 1018.2
20260502015134 48 16 0.0 0.9 0.00 0.00 0.00 75 1018.3
20260502014632 48 344 0.0 0.0 0.00 0.00 0.00 75 1018.2
20260502014129 48 66 0.0 0.0 0.00 0.00 0.00 74 1018.2
20260502013625 49 32 3.5 3.5 0.00 0.00 0.00 72 1018.0
20260502013120 49 181 0.0 1.7 0.00 0.00 0.00 73 1018.0
20260502012618 49 35 1.7 5.2 0.00 0.00 0.00 73 1017.7
20260502012116 49 21 2.6 3.5 0.00 0.00 0.00 73 1017.7
20260502011613 49 24 0.0 1.7 0.00 0.00 0.00 74 1017.4
20260502011108 49 25 1.7 3.5 0.00 0.00 0.00 74 1017.6
20260502010606 49 11 0.0 6.1 0.00 0.00 0.00 72 1017.2
20260502005600 50 280 0.0 1.7 0.00 0.00 0.00 72 1017.3
20260502005058 50 55 0.9 2.6 0.00 0.00 0.00 69 1016.9
20260502004559 51 356 0.0 0.9 0.00 0.00 0.00 70 1017.0
20260502004055 50 346 1.7 3.5 0.00 0.00 0.00 70 1016.8
20260502003554 50 166 0.0 0.9 0.00 0.00 0.00 71 1016.7
20260502003050 50 251 0.0 2.6 0.00 0.00 0.00 74 1016.6
20260502002547 50 101 0.0 0.9 0.00 0.00 0.00 76 1016.6
20260502002044 49 17 2.6 3.5 0.00 0.00 0.00 84 1016.4
20260502001542 50 143 0.0 0.0 0.00 0.00 0.00 90 1016.3
20260502001039 50 143 0.0 0.0 0.00 0.00 0.00 90 1015.9
20260502000537 50 143 0.0 0.0 0.00 0.00 0.00 89 1015.9
20260502000034 50 142 0.0 0.0 0.00 0.00 0.00 89 1015.7
20260501235530 50 143 0.0 0.0 0.00 0.00 0.00 89 1015.8
20260501235025 50 143 0.0 0.0 0.00 0.00 0.00 89 1015.7
20260501234521 51 142 0.0 0.0 0.00 0.00 0.00 88 1015.2
20260501234020 51 142 0.0 0.0 0.00 0.00 0.00 87 1015.4
20260501233517 51 142 0.0 0.0 0.00 0.00 0.00 84 1015.4
20260501233014 51 142 0.9 1.7 0.00 0.00 0.00 82 1015.4
20260501232510 51 101 0.0 0.0 0.00 0.00 0.00 81 1015.1
20260501232008 51 101 0.0 0.0 0.00 0.00 0.00 82 1015.1
20260501231505 51 101 0.0 0.0 0.00 0.00 0.00 83 1015.4
20260501231003 51 101 0.0 0.0 0.00 0.00 0.00 83 1015.1
20260501230502 51 101 0.0 0.0 0.00 0.00 0.00 84 1015.2
20260501225959 51 101 0.0 0.0 0.00 0.00 0.00 84 1015.3
20260501225457 51 101 0.0 0.0 0.00 0.00 0.00 87 1015.3
20260501224952 51 101 0.0 0.0 0.00 0.00 0.00 89 1015.2
20260501224450 51 101 0.0 0.0 0.00 0.00 0.00 87 1015.3
20260501223947 51 101 0.0 0.0 0.00 0.00 0.00 89 1015.2
20260501223443 51 101 0.0 0.0 0.00 0.00 0.00 88 1015.4
20260501222938 50 101 0.0 0.9 0.00 0.00 0.00 87 1015.3
20260501222436 51 95 0.0 0.9 0.00 0.00 0.00 87 1015.0
20260501221932 51 80 0.0 0.0 0.00 0.00 0.00 87 1015.1
20260501221430 51 80 0.0 0.0 0.00 0.00 0.00 86 1015.1
20260501220927 51 80 0.0 0.0 0.00 0.00 0.00 85 1015.3
20260501220425 51 69 0.0 0.0 0.00 0.00 0.00 82 1015.4
20260501215920 51 69 0.9 1.7 0.00 0.00 0.00 80 1015.4
20260501215418 51 72 0.0 0.9 0.00 0.00 0.00 79 1015.3
20260501214913 52 313 1.7 6.1 0.00 0.00 0.00 74 1015.2
20260501214408 53 77 0.9 7.8 0.00 0.00 0.00 72 1015.0
20260501213904 53 77 0.9 3.5 0.00 0.00 0.00 72 1015.0
20260501213401 54 164 0.9 2.6 0.00 0.00 0.00 72 1014.9
20260501212856 54 54 3.5 3.5 0.00 0.00 0.00 72 1014.9
20260501212354 54 211 0.0 5.2 0.00 0.00 0.00 71 1014.9
20260501211851 55 329 1.7 1.7 0.00 0.00 0.00 73 1014.9
20260501211348 55 97 0.9 2.6 0.00 0.00 0.00 73 1014.7
20260501210845 54 109 0.0 0.9 0.00 0.00 0.00 73 1014.7
20260501210342 55 88 3.5 7.0 0.00 0.00 0.00 73 1014.7
20260501205838 55 85 0.9 3.5 0.00 0.00 0.00 76 1014.8
20260501205336 56 49 4.3 6.1 0.00 0.00 0.00 72 1014.7
20260501204832 56 33 3.5 3.5 0.00 0.00 0.00 72 1014.6
20260501204329 56 158 2.6 5.2 0.00 0.00 0.00 72 1014.4
20260501203825 56 92 3.5 5.2 0.00 0.00 0.00 72 1014.3
20260501203323 56 101 1.7 1.7 0.00 0.00 0.00 73 1014.5
20260501202820 56 108 0.0 5.2 0.00 0.00 0.00 73 1014.5
20260501202317 56 317 0.9 2.6 0.00 0.00 0.00 76 1014.4
20260501201814 55 315 0.9 6.1 0.00 0.00 0.00 74 1014.4
20260501201310 55 105 0.0 0.9 0.00 0.00 0.00 75 1014.3
20260501200807 55 356 0.9 2.6 0.00 0.00 0.00 75 1014.3
20260501200304 55 17 0.9 3.5 0.00 0.00 0.00 75 1014.2
20260501195802 55 81 1.7 3.5 0.00 0.00 0.00 73 1014.1
20260501195257 56 56 0.9 1.7 0.00 0.00 0.00 72 1014.2
20260501194753 56 50 2.6 5.2 0.00 0.00 0.00 70 1014.1
20260501194249 57 87 7.0 9.6 0.00 0.00 0.00 66 1014.4
20260501193746 58 45 2.6 5.2 0.00 0.00 0.00 61 1014.1
20260501193244 59 156 0.9 2.6 0.00 0.00 0.00 57 1013.7
20260501192741 60 27 3.5 5.2 0.00 0.00 0.00 52 1013.7
20260501192238 60 103 0.0 1.7 0.00 0.00 0.00 51 1013.8
20260501191735 61 91 0.0 2.6 0.00 0.00 0.00 47 1013.5
20260501191233 61 78 0.9 0.9 0.00 0.00 0.00 46 1013.5
20260501190729 61 81 0.0 5.2 0.00 0.00 0.00 46 1013.4
20260501190225 62 63 2.6 3.5 0.00 0.00 0.00 44 1013.4
20260501185721 63 267 0.9 1.7 0.00 0.00 0.00 47 1013.5
20260501185217 63 184 1.7 2.6 0.00 0.00 0.00 42 1013.5
20260501184713 63 49 1.7 2.6 0.00 0.00 0.00 46 1013.5
20260501184209 64 191 0.0 3.5 0.00 0.00 0.00 42 1013.3
20260501183705 63 117 1.7 2.6 0.00 0.00 0.00 41 1013.2
20260501183202 63 153 0.9 1.7 0.00 0.00 0.00 42 1013.5
20260501182658 63 216 2.6 3.5 0.00 0.00 0.00 41 1013.4
20260501182154 63 159 0.9 3.5 0.00 0.00 0.00 40 1013.4
20260501181652 63 52 1.7 2.6 0.00 0.00 0.00 41 1013.5
20260501181149 62 76 0.9 1.7 0.00 0.00 0.00 43 1013.4
20260501180647 62 227 0.9 3.5 0.00 0.00 0.00 43 1013.7
20260501180143 62 83 1.7 2.6 0.00 0.00 0.00 44 1013.8
20260501175639 62 250 0.0 3.5 0.00 0.00 0.00 40 1013.7
20260501175137 62 276 0.9 3.5 0.00 0.00 0.00 39 1013.7
20260501174633 63 133 1.7 2.6 0.00 0.00 0.00 43 1013.8
20260501174131 62 143 0.9 5.2 0.00 0.00 0.00 40 1013.8
20260501173628 62 153 0.0 2.6 0.00 0.00 0.00 41 1013.8
20260501173125 61 228 0.9 1.7 0.00 0.00 0.00 46 1014.1